Фурмановка

Казахстан     44°16′54″N   72°59′00″E
темп.,
°C
ветер,
м/с
пор.,
м/с
влажн.,
%
обл.,
%
осадки,
мм/ч
давл.,
гПа
погр.,
м
23 октября, сб
сб2300:00+6юз36585 0.0 1036120
03:00+5зюз22645 0.0 103722
06:00+4юз22745 0.0 103710
09:00+6юв12715 0.0 1037114
12:00+9вюв224716 0.0 1036835
15:00+11всв11365 0.0 10331047
18:00+10св343760 0.0 103394
21:00+9ссв35425 0.0 103393
24 октября, вс
вс2400:00+8св48435 0.0 1032154
03:00+7св47505 0.0 1030122
06:00+6всв47570 0.0 1029120
09:00+8всв59490 0.0 1028236
12:00+15в911284 0.0 1025835
15:00+17в1011245 0.0 10221181
18:00+14всв914265 0.0 1022536
21:00+12всв815285 0.0 1021482
25 октября, пн
пн2500:00+10всв815315 0.0 1020378
03:00+8всв714365 0.0 1019286
06:00+7всв713405 0.0 1018232
09:00+8всв612405 0.0 1018289
12:00+16в68245 0.0 1016835
15:00+19юв35205 0.0 10151004
18:00+15ююз22280 0.0 101519
21:00+12в11320 0.0 101613
26 октября, вт
вт2600:00+12ю22330 0.0 101511
03:00+11юз33350 0.0 101613
06:00+10ююз44341 0.0 101627
09:00+12юз46331 0.0 1017109
12:00+19зюз711190 0.0 10171078
15:00+20з8121791 0.0 10161673
18:00+17з5102123 0.0 1017212
21:00+15зюз51125100 0.0 1019229
27 октября, ср
ср2700:00+13з4830100 0.0 1020135
03:00+12зюз2232100 0.0 102118
06:00+12юз3332100 0.0 102136
09:00+12зюз3530100 0.0 1023146
12:00+16зюз342399 0.0 1023612
15:00+16зсз5630100 0.0 1023882
18:00+14з4636100 0.0 1024315
21:00+13сз2344100 0.0 1025105